UBAKUSAT

Last updated on Mon Dec 28 2020 00:02:09 GMT+0000 (Coordinated Universal Time)

1 43467U 98067NQ 20362.27906033 .06269310 12352-4 52456-3 0 9996 2 43467 51.6190 354.3668 0001241 137.3285 222.7838 16.38845679150702

Satellite not in orbit